Flag for Paraguay Weather past 2 weeks in Asuncion, Paraguay

Now
88 °F

Sunny.


Feels Like: 88 °F
Forecast: 72 / 89 °F
Wind: 10 mph from Northeast

Location: Asuncion / Aeropuerto

Current Time: Aug 1, 2015 at 4:30:49 PM

Latest Report: Aug 1, 2015 at 4:00 PM


Visibility: 10 mi

Pressure: 29.80 "Hg

Humidity: 40%

Dew point: 61 °F

Location of AsuncionLocation

Historic Weather in Asuncion — Graph

°F

Asuncion temperature yesterday

Maximum temperature yesterday: 88 °F (at 1:00 PM)
Minimum temperature yesterday: 68 °F (at 9:00 PM)
Average temperature yesterday: 76 °F

Past Weeks' High & Low Weather Summary

 TemperatureHumidityPressure
High90 °F (Aug 1, 2:00 PM)100% (Jul 17, 10:00 PM)30.30 "Hg (Jul 17, 10:00 PM)
Low46 °F (Jul 21, 11:00 PM)33% (Jul 22, 2:00 PM)29.77 "Hg (Jul 19, 4:00 PM)
Average68 °F73%30.03 "Hg
* Reported Jul 17 3:00 PM — Aug 1 3:00 PM, Asuncion, Weather by CustomWeather, © 2015

Note: Actual official high and low records may vary slightly from our data, if they occured in-between our weather recording intervals... More about our weather records

Advertising

Asuncion weather history for previous 24 hours

 ConditionsComfort  
Time TempWeatherWind HumidityBarometerVisibility
3:00 PM
Sat, Aug 1
90 °FPassing clouds.12 mph38%29.83 "HgN/A
2:00 PM90 °FPassing clouds.14 mph38%29.83 "HgN/A
11:00 AM82 °FPassing clouds.12 mph48%29.95 "HgN/A
10:00 AM81 °FSunny.14 mph48%29.95 "Hg10 mi
9:30 AM79 °FSunny.12 mph51%29.95 "Hg10 mi
9:00 AM79 °FPassing clouds.10 mph51%29.95 "HgN/A
8:30 AM75 °FSunny.10 mph57%29.95 "Hg10 mi
8:00 AM75 °FSunny.10 mph57%29.95 "Hg10 mi
7:30 AM75 °FSunny.10 mph54%29.95 "Hg10 mi
7:00 AM73 °FPassing clouds.9 mph61%29.95 "HgN/A
6:00 AM73 °FPartly sunny.7 mph61%29.92 "HgN/A
5:00 AM73 °FPassing clouds.6 mph65%29.92 "HgN/A
4:00 AM73 °FPassing clouds.3 mph65%29.92 "HgN/A
3:00 AM70 °FPassing clouds.No wind83%29.92 "HgN/A
2:00 AM68 °FPassing clouds.2 mph83%29.92 "Hg6 mi
1:00 AM68 °FPassing clouds.No wind83%29.95 "Hg6 mi
12:00 AM68 °FClear.No wind83%29.95 "Hg6 mi
11:00 PM
Fri, Jul 31
70 °FClear.No wind83%29.95 "Hg6 mi
10:00 PM68 °FClear.2 mph88%29.95 "Hg5 mi
9:00 PM68 °FClear.2 mph88%29.92 "Hg5 mi
8:00 PM72 °FClear.2 mph78%29.92 "Hg5 mi
7:00 PM75 °FClear.3 mph69%29.89 "Hg5 mi
6:00 PM81 °FClear.6 mph58%29.89 "Hg10 mi
5:00 PM84 °FClear.3 mph51%29.86 "Hg10 mi
4:00 PM88 °FSunny.7 mph43%29.86 "Hg10 mi
Weather by CustomWeather, © 2015

See weather overviewHow to use our weather pages